This is the latest recevied weather packets stored in our database for station/object SP1BMW-13. If no packets are shown the sender has not sent any weather packets the latest 10 day(s).
| Time | Temp. | Humidity | Pressure | Rain* | Wind** | Luminosity | Snow |
|---|---|---|---|---|---|---|---|
| 1787907198 | 19.44° C | 61% | 1009.1 hPa | 0 mm | 0.89 m/s, 139° | 161 W/m² | - |
| 1787907138 | 19.44° C | 61% | 1008.9 hPa | 0 mm | 1.79 m/s, 91° | 156 W/m² | - |
| 1787907078 | 19.44° C | 61% | 1009.1 hPa | 0 mm | 1.79 m/s, 5° | 148 W/m² | - |
| 1787907018 | 19.44° C | 61% | 1009.2 hPa | 0 mm | 0.89 m/s, 82° | 137 W/m² | - |
| 1787906958 | 19.44° C | 61% | 1009.2 hPa | 0 mm | 0.89 m/s, 27° | 125 W/m² | - |
| 1787906898 | 19.44° C | 60% | 1009.2 hPa | 0 mm | 2.24 m/s, 167° | 116 W/m² | - |
| 1787906838 | 19.44° C | 60% | 1009.3 hPa | 0 mm | 1.79 m/s, 10° | 106 W/m² | - |
| 1787906778 | 19.44° C | 60% | 1009.4 hPa | 0 mm | 1.34 m/s, 110° | 99 W/m² | - |
| 1787906718 | 19.44° C | 61% | 1009.6 hPa | 0 mm | 1.34 m/s, 89° | 96 W/m² | - |
| 1787906658 | 19.44° C | 61% | 1009.4 hPa | 0 mm | 1.34 m/s, 2° | 96 W/m² | - |
| 1787906598 | 19.44° C | 61% | 1009.7 hPa | 0 mm | 1.34 m/s, 39° | 100 W/m² | - |
| 1787906538 | 19.44° C | 60% | 1009.6 hPa | 0 mm | 2.68 m/s, 37° | 107 W/m² | - |
| 1787906478 | 19.44° C | 61% | 1009.8 hPa | 0 mm | 1.34 m/s, 45° | 118 W/m² | - |
| 1787906418 | 19.44° C | 61% | 1009.9 hPa | 0 mm | 1.79 m/s, 137° | 129 W/m² | - |
| 1787906358 | 19.44° C | 61% | 1010.1 hPa | 0 mm | 1.79 m/s, 86° | 145 W/m² | - |
| 1787906298 | 19.44° C | 62% | 1009.9 hPa | 0 mm | 3.13 m/s, 106° | 160 W/m² | - |
| 1787906238 | 19.44° C | 63% | 1010 hPa | 0 mm | 0.89 m/s, 227° | 173 W/m² | - |
| 1787906178 | 19.44° C | 62% | 1010.1 hPa | 0 mm | 0.89 m/s, 152° | 181 W/m² | - |
| 1787906118 | 19.44° C | 62% | 1010.4 hPa | 0 mm | 1.79 m/s, 39° | 187 W/m² | - |
| 1787906058 | 19.44° C | 62% | 1010 hPa | 0 mm | 2.24 m/s, 57° | 190 W/m² | - |
| 1787905998 | 19.44° C | 63% | 1010.1 hPa | 0 mm | 0.45 m/s, 102° | 191 W/m² | - |
| 1787905938 | 19.44° C | 62% | 1010.1 hPa | 0 mm | 1.34 m/s, 117° | 193 W/m² | - |
| 1787905878 | 19.44° C | 62% | 1010.2 hPa | 0 mm | 1.34 m/s, 33° | 194 W/m² | - |
| 1787905818 | 19.44° C | 61% | 1010.5 hPa | 0 mm | 1.79 m/s, 92° | 192 W/m² | - |
| 1787905758 | 19.44° C | 61% | 1010.4 hPa | 0 mm | 1.34 m/s, 56° | 187 W/m² | - |
* Rain latest hour (hover to see other rain measurements)
** Current wind speed in m/s (hover to see current wind gust speed)